New River MCAS, NC

5:11 PM EDT on May 25, 2018 (GMT -0400)
New River Marine Corps Air Station

Weather History for KNCA - June, 2012

Change the Weather History Date:

Friday, June 29, 2012

  Actual Average Record
Temperature  
Mean Temperature 84 °F -  
Max Temperature 97 °F 85 °F 97 °F (2012)
Min Temperature 72 °F 68 °F 63 °F (2017)
Cooling Degree Days 20    
Growing Degree Days 34 (Base 50)    
Moisture  
Dew Point 70 °F    
Average Humidity 69    
Maximum Humidity 90    
Minimum Humidity 39    
Precipitation  
Precipitation 0.00 in - - ()
Sea Level Pressure  
Sea Level Pressure 29.85 in    
Wind  
Wind Speed 6 mph (SSW)    
Max Wind Speed 9 mph    
Max Gust Speed -    
Visibility 10 miles    
Events      
Averages and records for this station are not official NWS values.
T = Trace of Precipitation, MM = Missing Value Source: NWS Daily Summary

Daily Weather History Graph

Daily Weather History Graph

Search for Another Location

Airport or City:

Astronomy

Jun. 29, 2012 Rise Set
Actual Time 5:59 AM EDT 8:26 PM EDT
Civil Twilight 5:30 AM EDT 8:56 PM EDT
Nautical Twilight 4:53 AM EDT 9:32 PM EDT
Astronomical Twilight 4:13 AM EDT 10:12 PM EDT
Moon 4:14 PM EDT (6/29) 2:03 AM EDT (6/29)
Length of Visible Light 15h 26m
Length of Day
14h 27m
Waxing Gibbous, 77% of the Moon is Illuminated
Jun 29
Waxing Gibbous
Jul 3
Full
Jul 10
Last Quarter
Jul 19
New
Jul 26
First Quarter

Hourly Weather History & Observations

Time (EDT) Temp. Heat Index Dew Point Humidity Pressure Visibility Wind Dir Wind Speed Gust Speed Precip Events Conditions
12:56 AM 73.0 °F - 63.0 °F 71% 29.93 in 10.0 mi SW 4.6 mph - N/A   Clear
1:56 AM 73.0 °F - 64.0 °F 73% 29.91 in 10.0 mi SW 5.8 mph - N/A   Clear
2:56 AM 73.0 °F - 64.0 °F 73% 29.89 in 10.0 mi SW 6.9 mph - N/A   Clear
3:56 AM 73.0 °F - 64.0 °F 73% 29.88 in 10.0 mi SSW 4.6 mph - N/A   Clear
4:56 AM 73.0 °F - 64.9 °F 76% 29.88 in 10.0 mi SW 3.5 mph - N/A   Clear
5:56 AM 72.0 °F - 66.0 °F 81% 29.89 in 10.0 mi SW 4.6 mph - N/A   Clear
6:56 AM 73.0 °F - 66.9 °F 81% 29.89 in 10.0 mi SW 3.5 mph - N/A   Clear
7:56 AM 75.9 °F - 69.1 °F 79% 29.88 in 10.0 mi SW 5.8 mph - N/A   Clear
8:56 AM 80.1 °F 82.9 °F 69.1 °F 69% 29.88 in 10.0 mi SSW 8.1 mph - N/A   Clear
9:56 AM 84.0 °F 88.4 °F 70.0 °F 63% 29.88 in 10.0 mi WSW 6.9 mph - N/A   Clear
10:56 AM 86.0 °F 90.7 °F 70.0 °F 59% 29.88 in 10.0 mi WSW 5.8 mph - N/A   Clear
11:56 AM 90.0 °F 96.4 °F 71.1 °F 54% 29.86 in 10.0 mi Variable 4.6 mph - N/A   Clear
12:56 PM 93.9 °F 103.4 °F 73.0 °F 51% 29.85 in 10.0 mi SSW 5.8 mph - N/A   Clear
1:56 PM 95.0 °F 102.5 °F 71.1 °F 46% 29.83 in 10.0 mi South 5.8 mph - N/A   Clear
2:56 PM 97.0 °F 102.2 °F 68.0 °F 39% 29.82 in 10.0 mi West 4.6 mph - N/A   Clear
3:56 PM 95.0 °F 106.7 °F 75.0 °F 52% 29.81 in 10.0 mi SSE 9.2 mph - N/A   Clear
4:56 PM 91.9 °F 105.9 °F 77.0 °F 62% 29.80 in 10.0 mi South 9.2 mph - N/A   Clear
5:56 PM 90.0 °F 101.3 °F 75.9 °F 63% 29.79 in 10.0 mi SSE 8.1 mph - N/A   Clear
6:56 PM 87.1 °F 96.3 °F 75.0 °F 67% 29.78 in 10.0 mi South 9.2 mph - N/A   Clear
7:56 PM 82.9 °F 89.4 °F 73.9 °F 74% 29.77 in 10.0 mi South 5.8 mph - N/A   Clear
8:56 PM 80.1 °F 84.5 °F 73.9 °F 81% 29.78 in 10.0 mi South 4.6 mph - N/A   Clear
9:56 PM 79.0 °F - 73.9 °F 84% 29.81 in 10.0 mi South 4.6 mph - N/A   Clear
10:56 PM 78.1 °F - 73.9 °F 87% 29.83 in 9.0 mi SSE 3.5 mph - N/A   Clear
11:56 PM 77.0 °F - 73.9 °F 90% 29.83 in 9.0 mi South 3.5 mph - N/A   Clear